TimeMST,TemperatureF,Dew PointF,Humidity,Sea Level PressureIn,VisibilityMPH,Wind Direction,Wind SpeedMPH,Gust SpeedMPH,PrecipitationIn,Events,Conditions,WindDirDegrees,DateUTC
12:56 AM,45.0,30.9,58,30.08,10.0,WSW,31.1,36.8,N/A,,Clear,250,2013-03-02 07:56:00
1:56 AM,44.1,30.9,60,30.09,10.0,WSW,24.2,-,N/A,,Clear,240,2013-03-02 08:56:00
2:56 AM,44.1,30.9,60,30.07,10.0,WSW,20.7,-,N/A,,Clear,240,2013-03-02 09:56:00
3:56 AM,44.1,30.0,58,30.06,10.0,WSW,25.3,31.1,N/A,,Clear,250,2013-03-02 10:56:00
4:56 AM,44.6,30.2,57,30.06,10.0,West,16.1,26.5,N/A,,Clear,260,2013-03-02 11:56:00
5:56 AM,44.1,28.0,53,30.07,10.0,WSW,25.3,-,N/A,,Clear,250,2013-03-02 12:56:00
6:56 AM,43.0,28.0,56,30.09,10.0,WSW,17.3,-,N/A,,Clear,250,2013-03-02 13:56:00
7:56 AM,44.1,28.0,53,30.07,10.0,WSW,15.0,-,N/A,,Clear,250,2013-03-02 14:56:00
8:56 AM,46.9,27.0,46,30.05,10.0,WSW,12.7,-,N/A,,Clear,240,2013-03-02 15:56:00
9:56 AM,50.0,25.0,38,30.03,10.0,WSW,20.7,-,N/A,,Clear,240,2013-03-02 16:56:00
10:56 AM,51.1,24.1,35,30.01,10.0,WSW,17.3,-,N/A,,Clear,240,2013-03-02 17:56:00
11:56 AM,53.1,24.1,32,30.01,10.0,WSW,21.9,31.1,N/A,,Clear,240,2013-03-02 18:56:00
12:56 PM,55.0,23.0,29,29.97,10.0,West,20.7,27.6,N/A,,Clear,260,2013-03-02 19:56:00
1:56 PM,55.9,19.0,24,29.94,10.0,West,20.7,33.4,N/A,,Clear,270,2013-03-02 20:56:00
2:56 PM,57.0,19.0,23,29.93,10.0,West,24.2,33.4,N/A,,Clear,260,2013-03-02 21:56:00
3:56 PM,54.0,21.0,28,29.92,10.0,WSW,27.6,33.4,N/A,,Clear,250,2013-03-02 22:56:00
4:56 PM,51.1,25.0,36,29.93,10.0,WSW,26.5,35.7,N/A,,Clear,240,2013-03-02 23:56:00
5:56 PM,46.9,27.0,46,29.92,10.0,WSW,23.0,-,N/A,,Clear,240,2013-03-03 00:56:00
6:56 PM,44.1,28.9,55,29.91,10.0,WSW,21.9,-,N/A,,Clear,240,2013-03-03 01:56:00
7:56 PM,43.0,30.0,60,29.89,10.0,SW,19.6,-,N/A,,Clear,230,2013-03-03 02:56:00
8:56 PM,39.9,28.9,65,29.87,10.0,SW,16.1,-,N/A,,Clear,230,2013-03-03 03:56:00
9:56 PM,39.9,30.0,68,29.84,10.0,WSW,13.8,-,N/A,,Clear,250,2013-03-03 04:56:00
10:56 PM,39.0,30.0,70,29.81,10.0,WSW,15.0,-,N/A,,Clear,240,2013-03-03 05:56:00
11:56 PM,41.0,30.9,67,29.78,10.0,West,10.4,-,N/A,,Clear,270,2013-03-03 06:56:00